Powrót do katalogu

SL-14 R/B

AktywnyPO
NORAD 12988·ROCKET BODY·🇷🇺 Russia

Wystrzelony Dec 3, 1981 z Plesetsk Cosmodrome

Loading…

Następne Przeloty (najbliższe 24 godziny)

TLE

ŚwieżeSource: Space-Track

Epoka: Sep 14, 2026, 15:46 UTC

1 12988U 81117B   26257.65725666  .00000281  00000-0  28272-4 0  9997
2 12988  82.5247 142.4237 0016598 194.4972 165.5771 14.87405795400002

Śledź SL-14 R/B w czasie rzeczywistym z AllMySat

Download on the App Store